TALR91 ZZZZ-YSHW

Flight info

Callsign TALR91
Flight time N/A
Altitude 1500
Route DCT
Aircraft H60/M-SDFGRY/LB1

Departure

Time N/A
Airport ZZZZ

Arrival

Time 2026-05-04 12:23
Airport Holsworthy (Military) Airport (YSHW)
Time Latitude Longitude Altitude Speed Heading
2026-05-04 12:09 -34.19900 150.78888 798 ft 0 kts 189°
2026-05-04 12:15 -34.19908 150.78883 807 ft 1 kts 192°
2026-05-04 12:15 -34.19906 150.78885 814 ft 4 kts 195°
2026-05-04 12:16 -34.19955 150.78856 914 ft 37 kts 194°
2026-05-04 12:16 -34.20544 150.78594 1201 ft 136 kts 202°
2026-05-04 12:16 -34.21601 150.78325 1219 ft 167 kts 181°
2026-05-04 12:16 -34.22457 150.79148 1222 ft 160 kts 105°
2026-05-04 12:17 -34.22248 150.79941 1371 ft 160 kts 57°
2026-05-04 12:17 -34.21522 150.80987 1690 ft 154 kts 50°
2026-05-04 12:17 -34.20198 150.81504 1802 ft 172 kts 354°
2026-05-04 12:17 -34.18993 150.81347 1889 ft 170 kts 353°
2026-05-04 12:18 -34.17822 150.81181 1856 ft 166 kts 353°
2026-05-04 12:18 -34.17054 150.81219 1847 ft 163 kts
2026-05-04 12:18 -34.16021 150.81702 1856 ft 159 kts 31°
2026-05-04 12:18 -34.15114 150.82503 1860 ft 171 kts 36°
2026-05-04 12:19 -34.14135 150.83349 1866 ft 170 kts 34°
2026-05-04 12:19 -34.13133 150.84158 1867 ft 175 kts 34°
2026-05-04 12:19 -34.12124 150.84973 1578 ft 173 kts 34°
2026-05-04 12:19 -34.11123 150.85780 1505 ft 173 kts 34°
2026-05-04 12:20 -34.10126 150.86585 1497 ft 173 kts 34°
2026-05-04 12:20 -34.09127 150.87390 1497 ft 173 kts 34°
2026-05-04 12:20 -34.08128 150.88196 1498 ft 173 kts 34°
2026-05-04 12:20 -34.07130 150.89000 1498 ft 172 kts 34°
2026-05-04 12:21 -34.06133 150.89804 1498 ft 173 kts 34°
2026-05-04 12:21 -34.05136 150.90609 1498 ft 173 kts 34°
2026-05-04 12:21 -34.04238 150.91508 1498 ft 165 kts 47°
2026-05-04 12:21 -34.03410 150.92555 1499 ft 173 kts 46°
2026-05-04 12:22 -34.02580 150.93600 1499 ft 172 kts 46°
2026-05-04 12:22 -34.01784 150.94569 1312 ft 151 kts 45°
2026-05-04 12:22 -34.01124 150.95377 1190 ft 121 kts 45°
2026-05-04 12:22 -34.00538 150.95955 949 ft 96 kts 26°
2026-05-04 12:23 -33.99976 150.95972 687 ft 73 kts 330°
2026-05-04 12:23 -33.99771 150.95582 440 ft 30 kts 308°
2026-05-04 12:23 -33.99705 150.95466 378 ft 13 kts 309°
2026-05-04 12:23 -33.99650 150.95367 283 ft 17 kts 309°
2026-05-04 12:24 -33.99553 150.95284 272 ft 20 kts 301°
2026-05-04 12:24 -33.99478 150.95204 256 ft 2 kts 299°
2026-05-04 12:24 -33.99476 150.95200 248 ft 2 kts 299°
2026-05-04 12:24 -33.99474 150.95196 243 ft 0 kts 299°